Location: Ottawa
(45.4167°N, 75.7000°W)
Time: 04:30:35
(UTC-05:00)

XW-2B - Visible Passes

Search period start: 23 January 2018 00:00
Search period end: 02 February 2018 00:00
Orbit: 510 x 531 km, 97.5° (Epoch: 22 January)

Date Brightness Start Highest point End Pass type
(mag) Time Alt. Az. Time Alt. Az. Time Alt. Az.
23 Jan ? 05:03:18 10° ENE 05:04:40 12° E 05:06:00 10° ESE visible
23 Jan ? 06:35:29 10° N 06:39:10 54° WNW 06:42:48 10° SSW visible
24 Jan ? 06:22:08 10° N 06:25:55 80° WNW 06:29:38 10° SSW visible
24 Jan ? 18:42:24 10° W 18:43:04 10° W 18:43:45 10° WNW visible
25 Jan ? 06:08:52 10° NNE 06:12:37 70° E 06:16:20 10° S visible
25 Jan ? 18:27:27 10° SW 18:29:40 15° W 18:31:51 10° NW visible
26 Jan ? 05:55:40 10° NNE 05:59:19 47° E 06:02:55 10° S visible
26 Jan ? 18:13:22 10° SW 18:16:15 20° W 18:19:09 10° NW visible
27 Jan ? 05:42:32 10° NNE 05:45:59 33° E 05:49:22 10° SSE visible
27 Jan ? 17:59:33 10° SSW 18:02:53 28° W 18:06:13 10° NW visible
28 Jan ? 05:29:32 10° NE 05:32:36 23° E 05:35:39 10° SSE visible
28 Jan ? 17:45:57 10° S 17:49:32 40° W 17:53:09 10° NNW visible
29 Jan ? 05:16:43 10° NE 05:19:13 17° E 05:21:41 10° SE visible
29 Jan ? 06:50:03 10° N 06:53:31 36° WNW 06:56:58 10° SW visible
29 Jan ? 17:32:27 10° S 17:36:12 58° W 17:39:58 10° NNW visible
30 Jan ? 05:04:18 10° ENE 05:05:48 12° E 05:07:16 10° ESE visible
30 Jan ? 06:36:37 10° N 06:40:17 52° WNW 06:43:55 10° SSW visible
31 Jan ? 06:23:15 10° N 06:27:01 77° WNW 06:30:44 10° SSW visible
01 Feb ? 06:09:57 10° NNE 06:13:43 73° E 06:17:26 10° S visible
01 Feb ? 18:28:42 10° SW 18:30:47 14° W 18:32:51 10° WNW visible
